This is the latest recevied weather packets stored in our database for station/object IK2ILW-4. If no packets are shown the sender has not sent any weather packets the latest 1 day(s).
| Time | Temp. | Humidity | Pressure | Rain* | Wind** | Luminosity | Snow |
|---|---|---|---|---|---|---|---|
| 1777973250 | 6.11° C | 89% | 1014.2 hPa | 5.33 mm | 0 m/s | 183 W/m² | - |
| 1777972950 | 6.11° C | 91% | 1014.2 hPa | 5.08 mm | 0 m/s | 223 W/m² | - |
| 1777972671 | 6.11° C | 91% | 1014.2 hPa | 5.08 mm | 0 m/s | 179 W/m² | - |
| 1777972366 | 6.11° C | 89% | 1014.1 hPa | 5.08 mm | 0 m/s | 214 W/m² | - |
| 1777972062 | 6.67° C | 88% | 1014.1 hPa | 4.83 mm | 0 m/s | 204 W/m² | - |
| 1777971762 | 6.67° C | 87% | 1014.1 hPa | 4.83 mm | 0 m/s | 190 W/m² | - |
| 1777971461 | 6.67° C | 87% | 1014.4 hPa | 4.57 mm | 0 m/s | 176 W/m² | - |
| 1777971156 | 6.11° C | 88% | 1014.4 hPa | 4.57 mm | 0 m/s | 171 W/m² | - |
| 1777970856 | 6.11° C | 90% | 1014.4 hPa | 4.32 mm | 0 m/s | 163 W/m² | - |
| 1777970572 | 6.11° C | 92% | 1014.5 hPa | 4.06 mm | 0 m/s | 137 W/m² | - |
| 1777970268 | 6.11° C | 94% | 1014.5 hPa | 3.81 mm | 0 m/s | 118 W/m² | - |
| 1777969963 | 6.11° C | 94% | 1014.5 hPa | 3.3 mm | 0 m/s | 84 W/m² | - |
| 1777969659 | 6.11° C | 94% | 1014.6 hPa | 3.3 mm | 0 m/s | 62 W/m² | - |
| 1777969359 | 6.11° C | 93% | 1014.6 hPa | 3.05 mm | 0 m/s | 69 W/m² | - |
| 1777969059 | 6.11° C | 93% | 1014.6 hPa | 2.79 mm | 0 m/s | 63 W/m² | - |
| 1777968454 | 6.11° C | 91% | 1014.6 hPa | 2.29 mm | 0 m/s | 69 W/m² | - |
| 1777968169 | 6.11° C | 89% | 1014.6 hPa | 2.29 mm | 0 m/s | 58 W/m² | - |
| 1777967868 | 6.11° C | 89% | 1014.5 hPa | 2.03 mm | 0 m/s | 46 W/m² | - |
| 1777967565 | 6.11° C | 90% | 1014.5 hPa | 1.78 mm | 0 m/s | 47 W/m² | - |
| 1777967268 | 6.11° C | 90% | 1014.5 hPa | 1.78 mm | 0 m/s | 69 W/m² | - |
| 1777966967 | 6.11° C | 89% | 1014.5 hPa | 1.52 mm | 0 m/s | 86 W/m² | - |
| 1777966664 | 6.11° C | 89% | 1014.5 hPa | 1.52 mm | 0 m/s | 98 W/m² | - |
| 1777966360 | 6.11° C | 87% | 1014.5 hPa | 1.52 mm | 0 m/s | 74 W/m² | - |
| 1777966056 | 6.11° C | 85% | 1014.5 hPa | 1.27 mm | 0 m/s | 54 W/m² | - |
| 1777965752 | 6.11° C | 84% | 1014.5 hPa | 1.02 mm | 0 m/s | 35 W/m² | - |
* Rain since midnight (hover to see other rain measurements)
** Current wind speed in m/s (hover to see current wind gust speed)